DELTA 1 DEB, 10718

Orbit data source: Space-Track

DELTA 1 DEB, 10718 is space debris in SSO originally from a launch on Thu, 29 Jul 1976 UTC launched from the Air Force Western Test Range (AFWTR). Debris objects in space refer to the collection of defunct objects orbiting the Earth. Examples of debris include non-operational satellites, rocket bodies, and fragments generated from explosions, collisions, or faulty payload assembly.

Loading next visibility...
Identifier
10718, 1976-077AP
Orbit
SSO
Country
Flag of USUS
Related business
Manufacturer
Unknown
Mission
Spacecraft
Bus & Motor
Unknown
Mass
Unknown
Launch date (UTC)
1976-07-29 (50 years ago)
Launch vehicle
Unknown
Launch site
Air Force Western Test Range (AFWTR)
Object type
Payload
Rocket body
Debris
Shape & HBR
Unknown shape, 0.1 m
Radar Cross Section
Small (<0.1 m²)

Expand to show TLE details & history
Last TLE update: 7 hours ago

TLE from 7 hours ago
0 DELTA 1 DEB
1 10718U 76077AP  26119.66416288  .00000051  00000-0  67269-3 0  9993
2 10718 101.6108 148.4365 0054323 165.0091 313.5137 12.42884327254742
Epoch: 2026-04-29T15:56Z
TLE epoch observation values (Epoch: 2026-04-29T15:56:23.672Z)
Latitude
59.8968°
Longitude
-107.63369°
Altitude
1,475.07 km
Speed
7.144 km/s
True Right ascension
23h 16m 20s
True Declination
59° 45' 40"
Sunlit
Object was in daylight at epoch
Visualization orbit readout
Latitude
Unknown
Longitude
Unknown
Altitude
Unknown
Speed
Unknown
Apparent Right ascension
Unknown
Apparent Declination
Unknown
Sunlit
N/A
Visualization observer readout
Local Sidereal Time
06:45:47
Azimuth
Unknown
Elevation
Unknown
Doppler factor
Unknown
Orbital elements
Apogee altitude
1,534.701 km
Perigee altitude
1,449.195 km
Semi-major axis
7,870.085 km
Eccentricity
0.00543
Inclination
101.6108°
RAAN
148.4365°
Arg. of periapsis
165.0091°
True anomaly
313.06014°
Mean anomaly
313.5137°
Eccentric anomaly
313.28713°
Mean motion
3.10867 °/min
Orbital period
115.81 mins
BSTAR
0.00067269
Loading maneuver chart data...
Computing Atmospheric mass density...
Loading historical data...
Loading historical data...
Loading historical data...
Loading historical data...
Loading historical data...
Loading historical data...
Loading historical data...

Documentation

Showing up to 5 results
|